Location: Christchurch
(43.5330°S, 172.6330°E)
Time: 18:39:58
(UTC+13:00)

Cosmos 1633 - Pass Details

Date: 24 January 2019
Orbit: 465 x 483 km, 82.5° (Epoch: 23 October)

Event Time Altitude Azimuth Distance (km) Brightness Sun altitude
Rises 23:04:41 0° 194° (SSW) 2,549 7.4 -17.7°
Reaches altitude 10° 23:06:50 10° 199° (SSW) 1,664 6.4 -17.9°
Maximum altitude 23:10:21 50° 274° (W) 621 3.2 -18.3°
Enters shadow 23:11:52 29° 334° (NNW) 905 3.7 -18.5°
